Location: Gro�bocka
(50.8204°N, 11.9702°E)
Time: 07:28:37
(UTC+00:00)

Cosmos 44 - Pass Details

Date: 29 October 2020
Orbit: 577 x 784 km, 65.1° (Epoch: 01 December)

Event Time Altitude Azimuth Distance (km) Brightness Sun altitude
Rises 17:22:20 0° 233° (SW) 2,888 7.5 -14.8°
Reaches altitude 10° 17:24:35 10° 237° (WSW) 2,014 6.6 -15.2°
Maximum altitude 17:29:04 57° 317° (NW) 784 3.8 -15.9°
Enters shadow 17:33:25 13° 35° (NE) 1,976 5.3 -16.5°
